Location: Buckenweiler
(49.0667°N, 10.2500°E)
Time: 06:22:00
(UTC+00:00)

BREEZE-M DEB (TANK) - Pass Details

Date: 18 January 2026
Orbit: 312 x 11317 km, 49.7° (Epoch: 17 February)

Event Time Altitude Azimuth Distance (km) Brightness Sun altitude
Exits shadow 05:19:00 73° 225° (SW) 335 2.0 -17.0°
Maximum altitude 05:19:06 75° 196° (SSW) 330 2.1 -17.0°
Drops below altitude 10° 05:21:26 10° 109° (ESE) 1,271 6.5 -16.6°
Sets 05:23:33 0° 108° (ESE) 2,367 8.4 -16.3°
